| time (UTC) | temp F | wind direction | speed MPH | gust MPH | rain 1hr in | rain 24hr in | rain mn in | humidity % | barometer mb |
| 20260505051504 | 42 | 58 | 0.0 | 2.0 | 0.02 | 0.22 | 0.22 | 95 | 1014.0 |
| 20260505051004 | 42 | 57 | 0.0 | 3.0 | 0.02 | 0.22 | 0.22 | 95 | 1014.0 |
| 20260505041006 | 42 | 91 | 0.0 | 1.0 | 0.01 | 0.20 | 0.20 | 94 | 1014.0 |
| 20260505040506 | 42 | 90 | 0.0 | 1.0 | 0.01 | 0.20 | 0.20 | 94 | 1014.0 |
| 20260505040006 | 42 | 90 | 0.0 | 1.0 | 0.00 | 0.19 | 0.19 | 94 | 1013.9 |
| 20260505035505 | 42 | 104 | 0.0 | 1.0 | 0.00 | 0.19 | 0.19 | 94 | 1013.9 |
| 20260505035006 | 42 | 120 | 0.0 | 3.0 | 0.00 | 0.19 | 0.19 | 94 | 1013.9 |
| 20260505034505 | 42 | 120 | 0.0 | 3.0 | 0.00 | 0.19 | 0.19 | 94 | 1013.9 |
| 20260505034005 | 42 | 73 | 0.0 | 2.0 | 0.00 | 0.19 | 0.19 | 94 | 1013.9 |
| 20260505032506 | 42 | 72 | 0.0 | 1.0 | 0.00 | 0.19 | 0.19 | 94 | 1013.7 |
| 20260505032005 | 42 | 72 | 0.0 | 1.0 | 0.00 | 0.19 | 0.19 | 94 | 1013.7 |
| 20260505030505 | 42 | 65 | 0.0 | 2.0 | 0.00 | 0.19 | 0.19 | 94 | 1013.7 |
| 20260505030010 | 42 | 99 | 0.0 | 1.0 | 0.00 | 0.19 | 0.19 | 94 | 1013.5 |
| 20260505025507 | 42 | 99 | 0.0 | 1.0 | 0.00 | 0.19 | 0.19 | 94 | 1013.6 |
| 20260505025004 | 42 | 99 | 0.0 | 1.0 | 0.00 | 0.19 | 0.19 | 94 | 1013.6 |
| 20260505024506 | 42 | 99 | 0.0 | 1.0 | 0.00 | 0.19 | 0.19 | 94 | 1013.6 |
| 20260505024006 | 42 | 99 | 0.0 | 2.0 | 0.00 | 0.19 | 0.19 | 94 | 1013.7 |
| 20260505023006 | 42 | 104 | 0.0 | 1.0 | 0.00 | 0.19 | 0.19 | 94 | 1013.8 |
| 20260505022504 | 42 | 104 | 0.0 | 1.0 | 0.00 | 0.19 | 0.19 | 94 | 1013.6 |
| 20260505021506 | 42 | 104 | 0.0 | 1.0 | 0.00 | 0.19 | 0.19 | 94 | 1013.8 |
| 20260505021009 | 42 | 105 | 0.0 | 2.0 | 0.00 | 0.19 | 0.19 | 94 | 1014.0 |
| 20260505020505 | 42 | 104 | 0.0 | 2.0 | 0.00 | 0.19 | 0.19 | 94 | 1013.9 |
| 20260505020016 | 42 | 72 | 0.0 | 1.0 | 0.00 | 0.19 | 0.19 | 94 | 1014.0 |
| 20260505014506 | 42 | 77 | 0.0 | 5.0 | 0.00 | 0.19 | 0.19 | 93 | 1014.2 |
| 20260505014013 | 43 | 75 | 0.0 | 4.0 | 0.00 | 0.19 | 0.19 | 94 | 1014.2 |
| 20260505013505 | 43 | 56 | 0.0 | 4.0 | 0.00 | 0.19 | 0.19 | 93 | 1014.2 |
| 20260505013008 | 43 | 83 | 0.0 | 1.0 | 0.00 | 0.19 | 0.19 | 93 | 1014.3 |
| 20260505012505 | 43 | 93 | 0.0 | 1.0 | 0.00 | 0.19 | 0.19 | 94 | 1014.3 |
| 20260505012007 | 43 | 93 | 0.0 | 1.0 | 0.00 | 0.19 | 0.19 | 93 | 1014.3 |
| 20260505011507 | 43 | 73 | 0.0 | 2.0 | 0.00 | 0.19 | 0.19 | 93 | 1014.2 |
| 20260505011007 | 43 | 93 | 0.0 | 2.0 | 0.00 | 0.19 | 0.19 | 93 | 1014.3 |
| 20260505010505 | 43 | 91 | 1.0 | 5.0 | 0.00 | 0.19 | 0.19 | 92 | 1014.3 |
| 20260505010009 | 43 | 55 | 1.0 | 5.0 | 0.00 | 0.19 | 0.19 | 93 | 1014.3 |
| 20260505005505 | 43 | 86 | 1.0 | 4.0 | 0.00 | 0.19 | 0.19 | 93 | 1014.4 |
| 20260505005013 | 43 | 99 | 0.0 | 4.0 | 0.00 | 0.19 | 0.19 | 93 | 1014.3 |
| 20260505004505 | 44 | 141 | 0.0 | 3.0 | 0.00 | 0.19 | 0.19 | 93 | 1014.3 |
| 20260505004005 | 44 | 130 | 0.0 | 3.0 | 0.00 | 0.19 | 0.19 | 93 | 1014.3 |
| 20260505003006 | 44 | 94 | 0.0 | 2.0 | 0.00 | 0.19 | 0.19 | 93 | 1014.2 |
| 20260505002007 | 44 | 115 | 0.0 | 5.0 | 0.00 | 0.19 | 0.19 | 93 | 1014.2 |
| 20260505001506 | 44 | 140 | 0.0 | 5.0 | 0.00 | 0.19 | 0.19 | 93 | 1014.1 |
| 20260505001012 | 44 | 233 | 0.0 | 2.0 | 0.00 | 0.19 | 0.19 | 93 | 1014.2 |
| 20260504235504 | 44 | 110 | 1.0 | 2.0 | 0.00 | 0.19 | 0.19 | 94 | 1014.2 |
| 20260504235005 | 44 | 77 | 1.0 | 5.0 | 0.00 | 0.19 | 0.19 | 94 | 1014.3 |
| 20260504234505 | 43 | 59 | 1.0 | 5.0 | 0.00 | 0.19 | 0.19 | 94 | 1014.5 |
| 20260504234006 | 43 | 62 | 1.0 | 3.0 | 0.01 | 0.19 | 0.19 | 93 | 1014.4 |
| 20260504233505 | 43 | 100 | 0.0 | 2.0 | 0.02 | 0.19 | 0.19 | 94 | 1014.4 |
| 20260504232005 | 43 | 111 | 0.0 | 2.0 | 0.02 | 0.19 | 0.19 | 94 | 1014.5 |
| 20260504231500 | 43 | 120 | 0.0 | 2.0 | 0.03 | 0.19 | 0.19 | 94 | 1014.5 |
| 20260504231005 | 43 | 254 | 1.0 | 4.0 | 0.03 | 0.19 | 0.19 | 94 | 1014.5 |
| 20260504230500 | 43 | 96 | 1.0 | 4.0 | 0.04 | 0.19 | 0.19 | 94 | 1014.5 |
| 20260504230002 | 43 | 112 | 1.0 | 4.0 | 0.04 | 0.19 | 0.19 | 94 | 1014.4 |
| 20260504225504 | 43 | 98 | 1.0 | 4.0 | 0.05 | 0.19 | 0.19 | 94 | 1014.5 |
| 20260504225005 | 43 | 79 | 0.0 | 3.0 | 0.05 | 0.19 | 0.19 | 94 | 1014.6 |
| 20260504224505 | 43 | 87 | 1.0 | 3.0 | 0.05 | 0.19 | 0.19 | 94 | 1014.6 |
| 20260504223505 | 44 | 113 | 1.0 | 3.0 | 0.03 | 0.17 | 0.17 | 94 | 1014.6 |
| 20260504223003 | 44 | 102 | 1.0 | 3.0 | 0.04 | 0.17 | 0.17 | 94 | 1014.7 |
| 20260504222007 | 44 | 75 | 1.0 | 4.0 | 0.04 | 0.17 | 0.17 | 94 | 1014.7 |
| 20260504221506 | 44 | 95 | 1.0 | 2.0 | 0.03 | 0.16 | 0.16 | 94 | 1014.7 |
| 20260504221008 | 44 | 87 | 0.0 | 3.0 | 0.03 | 0.16 | 0.16 | 94 | 1014.8 |
| 20260504220506 | 44 | 139 | 1.0 | 4.0 | 0.02 | 0.15 | 0.15 | 94 | 1014.8 |
| 20260504220008 | 44 | 200 | 1.0 | 4.0 | 0.02 | 0.15 | 0.15 | 93 | 1014.8 |
| 20260504215506 | 44 | 117 | 1.0 | 3.0 | 0.01 | 0.14 | 0.14 | 93 | 1014.9 |
| 20260504215004 | 44 | 138 | 1.0 | 4.0 | 0.02 | 0.14 | 0.14 | 95 | 1014.8 |
| 20260504214505 | 44 | 75 | 1.0 | 4.0 | 0.02 | 0.14 | 0.14 | 94 | 1014.9 |
| 20260504214001 | 44 | 70 | 1.0 | 4.0 | 0.02 | 0.14 | 0.14 | 95 | 1014.8 |
| 20260504213505 | 44 | 121 | 0.0 | 2.0 | 0.02 | 0.14 | 0.14 | 95 | 1014.9 |
| 20260504213005 | 44 | 136 | 0.0 | 2.0 | 0.01 | 0.13 | 0.13 | 95 | 1014.9 |
| 20260504212505 | 44 | 136 | 0.0 | 2.0 | 0.01 | 0.13 | 0.13 | 95 | 1014.9 |
| 20260504212006 | 44 | 110 | 1.0 | 5.0 | 0.01 | 0.13 | 0.13 | 95 | 1014.9 |
| 20260504211505 | 44 | 68 | 1.0 | 5.0 | 0.01 | 0.13 | 0.13 | 94 | 1014.9 |
| 20260504211005 | 44 | 131 | 0.0 | 2.0 | 0.01 | 0.13 | 0.13 | 95 | 1015.0 |
| 20260504210500 | 44 | 137 | 0.0 | 1.0 | 0.01 | 0.13 | 0.13 | 95 | 1014.9 |
| 20260504210005 | 44 | 96 | 0.0 | 1.0 | 0.01 | 0.13 | 0.13 | 95 | 1014.9 |
| 20260504205504 | 44 | 105 | 0.0 | 1.0 | 0.01 | 0.13 | 0.13 | 95 | 1014.8 |
| 20260504204005 | 43 | 49 | 1.0 | 3.0 | 0.00 | 0.12 | 0.12 | 95 | 1014.8 |
| 20260504203505 | 44 | 84 | 0.0 | 1.0 | 0.00 | 0.12 | 0.12 | 95 | 1014.9 |
| 20260504203007 | 44 | 18 | 0.0 | 1.0 | 0.00 | 0.12 | 0.12 | 95 | 1014.7 |
| 20260504202504 | 44 | 18 | 0.0 | 1.0 | 0.00 | 0.12 | 0.12 | 95 | 1014.7 |
| 20260504201506 | 43 | 83 | 1.0 | 4.0 | 0.00 | 0.12 | 0.12 | 95 | 1014.5 |
| 20260504201009 | 43 | 140 | 1.0 | 4.0 | 0.00 | 0.12 | 0.12 | 94 | 1014.5 |
| 20260504200505 | 43 | 66 | 2.0 | 4.0 | 0.00 | 0.12 | 0.12 | 95 | 1014.4 |
| 20260504200005 | 43 | 74 | 2.0 | 4.0 | 0.00 | 0.12 | 0.12 | 94 | 1014.5 |
| 20260504195506 | 43 | 63 | 1.0 | 4.0 | 0.00 | 0.12 | 0.12 | 94 | 1014.4 |
| 20260504195006 | 44 | 119 | 0.0 | 2.0 | 0.00 | 0.12 | 0.12 | 94 | 1014.5 |
| 20260504194506 | 43 | 153 | 0.0 | 2.0 | 0.00 | 0.12 | 0.12 | 94 | 1014.5 |
| 20260504194006 | 43 | 120 | 0.0 | 2.0 | 0.00 | 0.12 | 0.12 | 94 | 1014.6 |
| 20260504193507 | 43 | 139 | 0.0 | 2.0 | 0.00 | 0.12 | 0.12 | 94 | 1014.6 |
| 20260504193008 | 43 | 141 | 0.0 | 2.0 | 0.00 | 0.12 | 0.12 | 94 | 1014.5 |
| 20260504192506 | 43 | 229 | 1.0 | 2.0 | 0.00 | 0.12 | 0.12 | 94 | 1014.4 |
| 20260504192006 | 44 | 162 | 0.0 | 2.0 | 0.00 | 0.12 | 0.12 | 94 | 1014.4 |
| 20260504191505 | 44 | 153 | 0.0 | 2.0 | 0.00 | 0.12 | 0.12 | 94 | 1014.5 |
| 20260504191009 | 43 | 111 | 1.0 | 4.0 | 0.00 | 0.12 | 0.12 | 94 | 1014.6 |
| 20260504190505 | 44 | 325 | 0.0 | 4.0 | 0.00 | 0.12 | 0.12 | 93 | 1014.5 |
| 20260504190006 | 44 | 136 | 1.0 | 3.0 | 0.00 | 0.12 | 0.12 | 93 | 1014.5 |
| 20260504185506 | 44 | 94 | 1.0 | 4.0 | 0.00 | 0.12 | 0.12 | 93 | 1014.5 |
| 20260504185008 | 44 | 117 | 0.0 | 4.0 | 0.00 | 0.12 | 0.12 | 93 | 1014.7 |
| 20260504184005 | 45 | 148 | 0.0 | 3.0 | 0.00 | 0.12 | 0.12 | 93 | 1014.6 |
| 20260504183505 | 45 | 89 | 0.0 | 1.0 | 0.00 | 0.12 | 0.12 | 93 | 1014.5 |
| 20260504183006 | 45 | 79 | 0.0 | 2.0 | 0.00 | 0.12 | 0.12 | 93 | 1014.5 |
| 20260504182507 | 45 | 300 | 1.0 | 3.0 | 0.01 | 0.12 | 0.12 | 93 | 1014.4 |
| 20260504182006 | 45 | 153 | 1.0 | 3.0 | 0.02 | 0.12 | 0.12 | 93 | 1014.5 |
| 20260504181506 | 45 | 142 | 0.0 | 2.0 | 0.03 | 0.12 | 0.12 | 93 | 1014.5 |
| 20260504181006 | 45 | 129 | 0.0 | 2.0 | 0.04 | 0.12 | 0.12 | 93 | 1014.6 |
| 20260504180509 | 45 | 142 | 0.0 | 2.0 | 0.04 | 0.12 | 0.12 | 94 | 1014.5 |
| 20260504180005 | 45 | 147 | 0.0 | 2.0 | 0.05 | 0.12 | 0.12 | 93 | 1014.4 |
| 20260504175007 | 45 | 77 | 0.0 | 1.0 | 0.05 | 0.12 | 0.12 | 94 | 1014.4 |
| 20260504174506 | 45 | 153 | 0.0 | 2.0 | 0.05 | 0.12 | 0.12 | 95 | 1014.3 |
| 20260504174006 | 44 | 153 | 0.0 | 2.0 | 0.05 | 0.12 | 0.12 | 93 | 1014.3 |
| 20260504173506 | 44 | 145 | 1.0 | 4.0 | 0.05 | 0.12 | 0.12 | 94 | 1014.2 |
| 20260504173008 | 44 | 136 | 1.0 | 4.0 | 0.06 | 0.12 | 0.12 | 94 | 1014.1 |
| 20260504172504 | 44 | 108 | 0.0 | 1.0 | 0.05 | 0.11 | 0.11 | 94 | 1013.7 |
| 20260504172008 | 44 | 157 | 0.0 | 0.0 | 0.05 | 0.10 | 0.10 | 94 | 1013.9 |
| 20260504171506 | 44 | 157 | 0.0 | 0.0 | 0.04 | 0.09 | 0.09 | 94 | 1014.2 |
| 20260504171005 | 43 | 157 | 0.0 | 1.0 | 0.04 | 0.08 | 0.08 | 93 | 1014.2 |
| 20260504170505 | 43 | 157 | 0.0 | 1.0 | 0.03 | 0.07 | 0.07 | 94 | 1014.1 |
| 20260504151005 | 41 | 141 | 0.0 | 0.0 | 0.02 | 0.02 | 0.02 | 95 | 1013.8 |
| 20260504150501 | 41 | 141 | 0.0 | 1.0 | 0.02 | 0.02 | 0.02 | 95 | 1013.8 |
| 20260504141005 | 41 | 66 | 0.0 | 1.0 | 0.00 | 0.00 | 0.00 | 95 | 1013.7 |
| 20260504140501 | 40 | 66 | 0.0 | 1.0 | 0.00 | 0.00 | 0.00 | 95 | 1013.7 |
| 20260504110505 | 42 | 146 | 0.0 | 1.0 | 0.00 | 0.00 | 0.00 | 94 | 1013.2 |
| 20260504100500 | 44 | 79 | 1.0 | 3.0 | 0.00 | 0.00 | 0.00 | 94 | 1013.1 |
| 20260504082006 | 46 | 78 | 0.0 | 1.0 | 0.00 | 0.00 | 0.00 | 93 | 1013.6 |
| 20260504081459 | 46 | 312 | 0.0 | 0.0 | 0.00 | 0.00 | 0.00 | 92 | 1013.6 |
| 20260504081006 | 46 | 312 | 0.0 | 0.0 | 0.00 | 0.00 | 0.00 | 92 | 1013.6 |
| 20260504080504 | 46 | 311 | 0.0 | 0.0 | 0.00 | 0.00 | 0.00 | 92 | 1013.6 |